Date String (YYYY-MM-DD hh:mm:ss) UTC,Instrument flags,absolute air pressure of the measurement (hPa),sample flow rate (lpm),inlet stack bypass flow (lpm),air temperature of the measurement (°C),ambient temperature measured by the external sensor (°C),aerosol sample conditioner tube jacket temperature (°C),OPC LED temperature (°C),internal box temperature (°C),relative humidity of the measurement (%),span deviation,mass concentration of particles derived from Lorenz-Mie calculation of OPC scattering (μg/m³),mass concentration of particles derived from Lorenz-Mie calculation of OPC scattering (μg/m³),mass concentration of particles derived from Lorenz-Mie calculation of OPC scattering (μg/m³)
DateTimeUTC,F1_M11,P_M11,Q1_M11,Q2_M11,T1_M11,T2_M11,T3_M11,T4_M11,T5_M11,U1_M11,ZSPAN_M11,X0_M11,X2_M11,X1_M11
2023-11-13 01:00:00,SystemResetWarning,0838.1,4.99,000.00,027.9,026.8,000.0,036.2,029.4,7.6,0000.0,0007.19,0003.50,0002.70
2023-11-13 01:01:00,SystemResetWarning,0838.0,5.00,000.00,027.9,026.8,000.0,036.2,029.4,7.6,0000.0,0007.27,0003.51,0002.70
2023-11-13 01:02:00,SystemResetWarning,0838.0,4.99,000.00,027.9,026.8,000.0,036.2,029.4,7.6,0000.0,0007.63,0003.53,0002.71
2023-11-13 01:03:00,SystemResetWarning,0838.0,5.01,000.00,027.9,026.8,000.0,036.2,029.4,7.7,0000.0,0008.25,0003.55,0002.72
2023-11-13 01:04:00,SystemResetWarning,0838.0,5.01,000.00,028.0,026.9,000.0,036.3,029.4,7.5,0000.0,0008.34,0003.53,0002.72
2023-11-13 01:05:00,SystemResetWarning,0838.0,5.00,000.00,028.0,026.9,000.0,036.3,029.3,7.6,0000.0,0008.28,0003.53,0002.72
2023-11-13 01:06:00,SystemResetWarning,0838.0,4.99,000.00,027.9,026.9,000.0,036.3,029.4,7.7,0000.0,0008.20,0003.50,0002.71
2023-11-13 01:07:00,SystemResetWarning,0838.1,4.99,000.00,027.9,026.9,000.0,036.3,029.4,7.6,0000.0,0008.11,0003.51,0002.71
2023-11-13 01:08:00,SystemResetWarning,0838.0,5.00,000.00,028.0,026.9,000.0,036.3,029.4,7.6,0000.0,0007.85,0003.48,0002.70
2023-11-13 01:09:00,SystemResetWarning,0838.0,5.01,000.00,028.0,026.9,000.0,036.3,029.4,7.6,0000.0,0007.90,0003.47,0002.71
2023-11-13 01:10:00,SystemResetWarning,0838.0,5.01,000.00,028.0,026.8,000.0,036.3,029.4,7.6,0000.0,0008.26,0003.45,0002.70
2023-11-13 01:11:00,SystemResetWarning,0838.0,5.01,000.00,028.0,026.8,000.0,036.3,029.4,7.5,0000.0,0009.31,0003.47,0002.69
2023-11-13 01:12:00,SystemResetWarning,0838.0,5.00,000.00,028.0,026.8,000.0,036.3,029.4,7.5,0000.0,0010.11,0003.50,0002.69
2023-11-13 01:13:00,SystemResetWarning,0838.0,4.99,000.00,028.0,026.8,000.0,036.3,029.4,7.5,0000.0,0009.99,0003.48,0002.69
2023-11-13 01:14:00,SystemResetWarning,0838.0,5.00,000.00,028.0,026.8,000.0,036.3,029.4,7.5,0000.0,0009.53,0003.45,0002.67
2023-11-13 01:15:00,SystemResetWarning,0838.0,5.00,000.00,028.0,026.9,000.0,036.3,029.4,7.5,0000.0,0009.28,0003.45,0002.67
2023-11-13 01:16:00,SystemResetWarning,0837.9,5.01,000.00,028.0,026.9,000.0,036.3,029.4,7.4,0000.0,0009.28,0003.43,0002.67
2023-11-13 01:17:00,SystemResetWarning,0837.9,4.98,000.00,028.0,026.8,000.0,036.3,029.4,7.5,0000.0,0009.36,0003.44,0002.65
2023-11-13 01:18:00,SystemResetWarning,0838.0,5.00,000.00,028.0,026.9,000.0,036.3,029.4,7.4,0000.0,0009.24,0003.38,0002.62
2023-11-13 01:19:00,SystemResetWarning,0837.9,5.00,000.00,028.0,026.9,000.0,036.3,029.4,7.4,0000.0,0009.21,0003.37,0002.61
2023-11-13 01:20:00,SystemResetWarning,0838.0,5.01,000.00,028.0,026.8,000.0,036.3,029.4,7.4,0000.0,0009.13,0003.36,0002.58
2023-11-13 01:21:00,SystemResetWarning,0838.0,5.01,000.00,028.0,026.8,000.0,036.3,029.4,7.5,0000.0,0008.67,0003.34,0002.57
2023-11-13 01:22:00,SystemResetWarning,0838.0,5.00,000.00,028.0,026.8,000.0,036.3,029.4,7.4,0000.0,0007.55,0003.31,0002.55
2023-11-13 01:23:00,SystemResetWarning,0838.1,4.99,000.00,028.0,026.8,000.0,036.3,029.4,7.5,0000.0,0007.29,0003.29,0002.53
2023-11-13 01:24:00,SystemResetWarning,0838.1,4.99,000.00,028.0,026.8,000.0,036.3,029.4,7.5,0000.0,0007.29,0003.29,0002.51
2023-11-13 01:25:00,SystemResetWarning,0838.1,5.00,000.00,028.0,026.8,000.0,036.3,029.4,7.5,0000.0,0007.03,0003.30,0002.53
2023-11-13 01:26:00,SystemResetWarning,0838.1,5.01,000.00,028.0,026.8,000.0,036.3,029.4,7.5,0000.0,0006.91,0003.27,0002.51
2023-11-13 01:27:00,SystemResetWarning,0838.1,5.01,000.00,028.0,026.8,000.0,036.3,029.4,7.5,0000.0,0007.15,0003.28,0002.50
2023-11-13 01:28:00,SystemResetWarning,0838.1,5.01,000.00,028.0,026.8,000.0,036.3,029.4,7.5,0000.0,0007.47,0003.30,0002.50
2023-11-13 01:29:00,SystemResetWarning,0838.1,4.99,000.00,028.0,026.8,000.0,036.3,029.3,7.6,0000.0,0007.73,0003.35,0002.51
2023-11-13 01:30:00,SystemResetWarning,0838.1,4.99,000.00,028.0,026.8,000.0,036.3,029.3,7.6,0000.0,0007.85,0003.33,0002.51
2023-11-13 01:31:00,SystemResetWarning,0838.0,5.00,000.00,028.0,026.8,000.0,036.3,029.4,7.6,0000.0,0007.83,0003.33,0002.52
2023-11-13 01:32:00,SystemResetWarning,0838.0,5.01,000.00,028.0,026.8,000.0,036.3,029.4,7.6,0000.0,0007.90,0003.35,0002.55
2023-11-13 01:33:00,SystemResetWarning,0838.0,5.00,000.00,028.0,026.8,000.0,036.3,029.4,7.6,0000.0,0007.94,0003.36,0002.54
2023-11-13 01:34:00,SystemResetWarning,0838.0,5.00,000.00,028.0,026.8,000.0,036.3,029.3,7.5,0000.0,0008.17,0003.36,0002.54
2023-11-13 01:35:00,SystemResetWarning,0838.0,5.00,000.00,028.0,026.8,000.0,036.3,029.4,7.6,0000.0,0008.31,0003.37,0002.56
2023-11-13 01:36:00,SystemResetWarning,0838.0,5.00,000.00,028.0,026.8,000.0,036.3,029.4,7.6,0000.0,0008.42,0003.38,0002.55
2023-11-13 01:37:00,SystemResetWarning,0838.0,5.00,000.00,028.0,026.8,000.0,036.3,029.4,7.6,0000.0,0008.51,0003.41,0002.56
2023-11-13 01:38:00,SystemResetWarning,0838.0,5.00,000.00,028.0,026.8,000.0,036.3,029.4,7.6,0000.0,0008.40,0003.41,0002.57
2023-11-13 01:39:00,SystemResetWarning,0838.0,5.00,000.00,028.0,026.7,000.0,036.3,029.3,7.6,0000.0,0008.07,0003.39,0002.59
2023-11-13 01:40:00,SystemResetWarning,0838.1,5.00,000.00,027.9,026.7,000.0,036.3,029.3,7.5,0000.0,0008.06,0003.40,0002.62
2023-11-13 01:41:00,SystemResetWarning,0838.1,5.00,000.00,027.9,026.7,000.0,036.3,029.3,7.4,0000.0,0008.64,0003.48,0002.63
2023-11-13 01:42:00,SystemResetWarning,0838.2,5.00,000.00,027.9,026.7,000.0,036.3,029.3,7.7,0000.0,0008.70,0003.47,0002.63
2023-11-13 01:43:00,SystemResetWarning,0838.2,5.00,000.00,027.9,026.7,000.0,036.3,029.3,7.7,0000.0,0008.73,0003.47,0002.63
2023-11-13 01:44:00,SystemResetWarning,0838.2,5.00,000.00,027.9,026.7,000.0,036.3,029.3,7.8,0000.0,0009.46,0003.51,0002.64
2023-11-13 01:45:00,SystemResetWarning,0838.2,5.01,000.00,027.9,026.7,000.0,036.3,029.3,7.8,0000.0,0009.25,0003.54,0002.66
2023-11-13 01:46:00,SystemResetWarning,0838.1,5.00,000.00,027.9,026.7,000.0,036.3,029.3,7.8,0000.0,0009.15,0003.51,0002.65
2023-11-13 01:47:00,SystemResetWarning,0838.1,5.00,000.00,027.9,026.7,000.0,036.3,029.3,7.7,0000.0,0009.43,0003.49,0002.65
2023-11-13 01:48:00,SystemResetWarning,0838.0,5.00,000.00,027.9,026.6,000.0,036.3,029.2,7.7,0000.0,0009.69,0003.51,0002.63
2023-11-13 01:49:00,SystemResetWarning,0837.9,5.00,000.00,027.9,026.6,000.0,036.3,029.2,7.6,0000.0,0009.69,0003.51,0002.62
2023-11-13 01:50:00,SystemResetWarning,0837.9,5.00,000.00,027.9,026.6,000.0,036.3,029.2,7.8,0000.0,0009.85,0003.50,0002.62
2023-11-13 01:51:00,SystemResetWarning,0837.9,5.00,000.00,027.9,026.6,000.0,036.3,029.2,7.8,0000.0,0010.64,0003.49,0002.61
2023-11-13 01:52:00,SystemResetWarning,0837.9,5.00,000.00,027.9,026.6,000.0,036.3,029.2,7.9,0000.0,0010.30,0003.44,0002.61
2023-11-13 01:53:00,SystemResetWarning,0838.0,5.00,000.00,027.8,026.6,000.0,036.3,029.2,7.9,0000.0,0010.38,0003.44,0002.61
2023-11-13 01:54:00,SystemResetWarning,0838.0,5.00,000.00,027.8,026.6,000.0,036.3,029.2,7.9,0000.0,0010.37,0003.42,0002.59
2023-11-13 01:55:00,SystemResetWarning,0838.0,5.00,000.00,027.8,026.5,000.0,036.3,029.2,7.9,0000.0,0009.54,0003.36,0002.59
2023-11-13 01:56:00,SystemResetWarning,0838.0,5.00,000.00,027.8,026.5,000.0,036.3,029.2,7.9,0000.0,0009.38,0003.33,0002.58
2023-11-13 01:57:00,SystemResetWarning,0838.0,5.00,000.00,027.8,026.5,000.0,036.3,029.1,7.7,0000.0,0009.46,0003.35,0002.56
2023-11-13 01:58:00,SystemResetWarning,0837.9,5.00,000.00,027.8,026.5,000.0,036.2,029.1,7.7,0000.0,0009.23,0003.35,0002.55
2023-11-13 01:59:00,SystemResetWarning,0837.9,5.00,000.00,027.8,026.5,000.0,036.2,029.1,7.7,0000.0,0009.21,0003.33,0002.56
